Location: Peebles
(55.6412°N, 3.1714°W)
Time: 13:55:02
(UTC+01:00)

Cosmos 2227 Rocket - Pass Details

Date: 26 September 2021
Orbit: 837 x 846 km, 71.0° (Epoch: 17 October)

Event Time Altitude Azimuth Distance (km) Brightness Sun altitude
Rises 23:38:26 0° 322° (NW) 3,421 6.4 -33.3°
Reaches altitude 10° 23:41:09 10° 312° (NW) 2,481 5.3 -33.4°
Enters shadow 23:44:50 27° 275° (W) 1,566 3.7 -33.7°
